Time,TemperatureF,DewpointF,PressureIn,WindDirection,WindDirectionDegrees,WindSpeedMPH,WindSpeedGustMPH,Humidity,HourlyPrecipIn,Conditions,Clouds,dailyrainin,SoftwareType,DateUTC
2013-03-20 00:02:00,36.0,27.0,17.72,SSE,153,0.0,0.0,70,0.00,,,0.00,,2013-03-20 05:02:00,
2013-03-20 00:12:00,36.0,27.0,17.72,SSE,153,0.0,0.0,70,0.00,,,0.00,,2013-03-20 05:12:00,
2013-03-20 00:22:00,36.0,27.0,17.72,SSE,153,0.0,0.0,70,0.00,,,0.00,,2013-03-20 05:22:00,
2013-03-20 00:32:00,36.0,28.0,17.72,SSE,153,0.0,0.0,71,0.00,,,0.00,,2013-03-20 05:32:00,
2013-03-20 00:42:00,36.0,28.0,17.72,SSE,153,0.0,0.0,71,0.00,,,0.00,,2013-03-20 05:42:00,
2013-03-20 00:52:00,36.0,28.0,17.72,South,185,0.0,0.0,73,0.00,,,0.00,,2013-03-20 05:52:00,
2013-03-20 01:02:00,36.0,28.0,17.72,South,185,0.0,0.0,73,0.00,,,0.00,,2013-03-20 06:02:00,
2013-03-20 01:12:00,36.0,28.0,17.72,South,185,0.0,0.0,73,0.00,,,0.00,,2013-03-20 06:12:00,
2013-03-20 01:22:00,36.0,28.0,17.72,South,185,0.0,0.0,73,0.00,,,0.00,,2013-03-20 06:22:00,
2013-03-20 01:32:00,36.0,28.0,17.72,South,185,0.0,0.0,73,0.00,,,0.00,,2013-03-20 06:32:00,
2013-03-20 01:42:00,36.0,28.0,17.72,South,185,0.0,0.0,73,0.00,,,0.00,,2013-03-20 06:42:00,
2013-03-20 01:53:00,36.0,29.0,17.72,SSW,207,2.0,2.0,75,0.00,,,0.00,,2013-03-20 06:53:00,
2013-03-20 02:02:00,36.0,29.0,17.72,SW,236,0.0,0.0,76,0.00,,,0.00,,2013-03-20 07:02:00,
2013-03-20 02:12:00,36.0,29.0,17.72,SW,236,0.0,0.0,76,0.00,,,0.00,,2013-03-20 07:12:00,
2013-03-20 02:22:00,37.0,30.0,17.72,SW,229,0.0,0.0,76,0.00,,,0.00,,2013-03-20 07:22:00,
2013-03-20 02:32:00,37.0,30.0,17.72,NW,326,0.0,0.0,76,0.00,,,0.00,,2013-03-20 07:32:00,
2013-03-20 02:42:00,37.0,30.0,17.72,NW,326,0.0,0.0,76,0.00,,,0.00,,2013-03-20 07:42:00,
2013-03-20 02:52:00,38.0,31.0,17.72,WNW,301,0.0,0.0,77,0.00,,,0.00,,2013-03-20 07:52:00,
2013-03-20 03:02:00,38.0,31.0,17.72,NNW,327,3.0,3.0,77,0.00,,,0.00,,2013-03-20 08:02:00,
2013-03-20 03:12:00,38.0,31.0,17.72,NNW,327,3.0,3.0,77,0.00,,,0.00,,2013-03-20 08:12:00,
2013-03-20 03:22:00,38.0,29.0,17.72,North,0,2.0,2.0,70,0.00,,,0.00,,2013-03-20 08:22:00,
2013-03-20 03:32:00,38.0,26.0,17.72,North,0,5.0,5.0,62,0.00,,,0.00,,2013-03-20 08:32:00,
2013-03-20 03:42:00,38.0,26.0,17.72,North,0,5.0,5.0,62,0.00,,,0.00,,2013-03-20 08:42:00,
2013-03-20 03:52:00,38.0,22.0,17.72,NNW,341,3.0,3.0,53,0.00,,,0.00,,2013-03-20 08:52:00,
2013-03-20 04:02:00,37.0,21.0,17.72,North,5,5.0,5.0,53,0.00,,,0.00,,2013-03-20 09:02:00,
2013-03-20 04:12:00,37.0,21.0,17.72,North,5,5.0,5.0,53,0.00,,,0.00,,2013-03-20 09:12:00,
2013-03-20 04:22:00,36.0,20.0,17.72,NNE,12,5.0,5.0,52,0.00,,,0.00,,2013-03-20 09:22:00,
2013-03-20 04:32:00,36.0,21.0,17.72,NNE,12,5.0,5.0,53,0.00,,,0.00,,2013-03-20 09:32:00,
2013-03-20 04:43:00,36.0,21.0,17.72,NNE,12,5.0,5.0,53,0.00,,,0.00,,2013-03-20 09:43:00,
2013-03-20 04:53:00,35.0,21.0,17.72,NW,323,3.0,5.0,56,0.00,,,0.00,,2013-03-20 09:53:00,
2013-03-20 05:03:00,34.0,20.0,17.72,North,0,5.0,5.0,55,0.00,,,0.00,,2013-03-20 10:03:00,
2013-03-20 05:12:00,34.0,20.0,17.72,North,0,5.0,5.0,55,0.00,,,0.00,,2013-03-20 10:12:00,
2013-03-20 05:22:00,33.0,19.0,17.72,NNW,342,3.0,4.0,56,0.00,,,0.00,,2013-03-20 10:22:00,
2013-03-20 05:32:00,33.0,19.0,17.72,North,0,3.0,5.0,56,0.00,,,0.00,,2013-03-20 10:32:00,
2013-03-20 05:42:00,33.0,19.0,17.72,North,0,3.0,5.0,56,0.00,,,0.00,,2013-03-20 10:42:00,
2013-03-20 05:53:00,32.0,19.0,17.72,NNE,23,5.0,5.0,58,0.00,,,0.00,,2013-03-20 10:53:00,
2013-03-20 06:02:00,31.0,18.0,17.72,NNW,328,0.0,0.0,59,0.00,,,0.00,,2013-03-20 11:02:00,
2013-03-20 06:12:00,31.0,18.0,17.72,NNW,328,0.0,0.0,59,0.00,,,0.00,,2013-03-20 11:12:00,
2013-03-20 06:22:00,30.0,19.0,17.72,NW,313,3.0,3.0,64,0.00,,,0.00,,2013-03-20 11:22:00,
2013-03-20 06:32:00,30.0,20.0,17.72,NNW,346,3.0,3.0,65,0.00,,,0.00,,2013-03-20 11:32:00,
2013-03-20 06:42:00,30.0,20.0,17.72,NNW,346,3.0,3.0,65,0.00,,,0.00,,2013-03-20 11:42:00,
2013-03-20 06:52:00,29.0,19.0,17.72,North,353,2.0,5.0,65,0.00,,,0.00,,2013-03-20 11:52:00,
2013-03-20 07:02:00,28.0,18.0,17.72,North,353,2.0,2.0,66,0.00,,,0.00,,2013-03-20 12:02:00,
2013-03-20 07:12:00,28.0,18.0,17.72,North,353,2.0,2.0,66,0.00,,,0.00,,2013-03-20 12:12:00,
2013-03-20 07:22:00,28.0,18.0,17.72,North,353,0.0,5.0,66,0.00,,,0.00,,2013-03-20 12:22:00,
2013-03-20 07:32:00,27.0,16.0,17.72,North,2,2.0,4.0,63,0.00,,,0.00,,2013-03-20 12:32:00,
2013-03-20 07:42:00,27.0,16.0,17.72,North,2,2.0,4.0,63,0.00,,,0.00,,2013-03-20 12:42:00,
2013-03-20 07:52:00,26.0,14.0,17.72,North,353,3.0,5.0,59,0.00,,,0.00,,2013-03-20 12:52:00,
2013-03-20 08:03:00,26.0,14.0,17.72,North,357,0.0,0.0,59,0.00,,,0.00,,2013-03-20 13:03:00,
2013-03-20 08:12:00,26.0,14.0,17.72,North,357,0.0,0.0,59,0.00,,,0.00,,2013-03-20 13:12:00,
2013-03-20 08:22:00,26.0,14.0,17.72,NNW,328,2.0,2.0,60,0.00,,,0.00,,2013-03-20 13:22:00,
2013-03-20 08:32:00,26.0,15.0,17.72,NNW,346,3.0,5.0,62,0.00,,,0.00,,2013-03-20 13:32:00,
2013-03-20 08:42:00,26.0,15.0,17.72,NNW,346,3.0,5.0,62,0.00,,,0.00,,2013-03-20 13:42:00,
2013-03-20 08:53:00,26.0,16.0,17.72,North,353,0.0,3.0,64,0.00,,,0.00,,2013-03-20 13:53:00,
2013-03-20 09:02:00,27.0,16.0,17.72,North,353,0.0,0.0,64,0.00,,,0.00,,2013-03-20 14:02:00,
2013-03-20 09:12:00,27.0,16.0,17.72,North,353,0.0,0.0,64,0.00,,,0.00,,2013-03-20 14:12:00,
2013-03-20 09:23:00,28.0,15.0,17.72,NW,321,0.0,0.0,58,0.00,,,0.00,,2013-03-20 14:23:00,
2013-03-20 09:33:00,29.0,14.0,17.72,NW,321,3.0,3.0,54,0.00,,,0.00,,2013-03-20 14:33:00,
2013-03-20 09:42:00,29.0,14.0,17.72,NW,321,3.0,3.0,54,0.00,,,0.00,,2013-03-20 14:42:00,
2013-03-20 09:52:00,30.0,14.0,17.72,North,350,3.0,5.0,50,0.00,,,0.00,,2013-03-20 14:52:00,
2013-03-20 10:02:00,31.0,14.0,17.72,NW,311,2.0,3.0,48,0.00,,,0.00,,2013-03-20 15:02:00,
2013-03-20 10:12:00,32.0,12.0,17.72,NNW,337,5.0,5.0,43,0.00,,,0.00,,2013-03-20 15:12:00,
2013-03-20 10:22:00,32.0,12.0,17.72,NNW,337,5.0,5.0,43,0.00,,,0.00,,2013-03-20 15:22:00,
2013-03-20 10:33:00,33.0,13.0,17.72,North,1,2.0,2.0,43,0.00,,,0.00,,2013-03-20 15:33:00,
2013-03-20 10:43:00,33.0,13.0,17.72,North,1,2.0,2.0,43,0.00,,,0.00,,2013-03-20 15:43:00,
2013-03-20 10:53:00,34.0,13.0,17.72,WNW,297,2.0,5.0,41,0.00,,,0.00,,2013-03-20 15:53:00,
2013-03-20 11:03:00,34.0,13.0,17.72,NW,315,2.0,4.0,41,0.00,,,0.00,,2013-03-20 16:03:00,
2013-03-20 11:12:00,34.0,13.0,17.72,NW,315,2.0,4.0,41,0.00,,,0.00,,2013-03-20 16:12:00,
2013-03-20 11:23:00,34.0,12.0,17.72,NNW,329,3.0,3.0,40,0.00,,,0.00,,2013-03-20 16:23:00,
2013-03-20 11:32:00,36.0,14.0,17.72,NNW,342,0.0,3.0,40,0.00,,,0.00,,2013-03-20 16:32:00,
2013-03-20 11:42:00,36.0,14.0,17.72,NNW,342,0.0,3.0,40,0.00,,,0.00,,2013-03-20 16:42:00,
2013-03-20 11:53:00,38.0,15.0,17.72,North,353,5.0,5.0,39,0.00,,,0.00,,2013-03-20 16:53:00,
2013-03-20 12:03:00,38.0,15.0,17.72,NNW,340,4.0,7.0,39,0.00,,,0.00,,2013-03-20 17:03:00,
2013-03-20 12:12:00,38.0,15.0,17.72,NNW,340,4.0,7.0,39,0.00,,,0.00,,2013-03-20 17:12:00,
2013-03-20 12:22:00,38.0,14.0,17.72,NNW,339,3.0,3.0,37,0.00,,,0.00,,2013-03-20 17:22:00,
2013-03-20 12:32:00,39.0,16.0,17.72,NW,304,2.0,3.0,38,0.00,,,0.00,,2013-03-20 17:32:00,
2013-03-20 12:42:00,39.0,16.0,17.72,NW,304,2.0,3.0,38,0.00,,,0.00,,2013-03-20 17:42:00,
2013-03-20 12:53:00,40.0,15.0,17.72,North,357,3.0,5.0,36,0.00,,,0.00,,2013-03-20 17:53:00,
2013-03-20 13:02:00,40.0,15.0,17.72,NW,320,3.0,5.0,35,0.00,,,0.00,,2013-03-20 18:02:00,
2013-03-20 13:12:00,40.0,15.0,17.72,NW,320,3.0,5.0,35,0.00,,,0.00,,2013-03-20 18:12:00,
2013-03-20 13:22:00,42.0,15.0,17.72,West,280,0.0,0.0,33,0.00,,,0.00,,2013-03-20 18:22:00,
2013-03-20 13:33:00,41.0,14.0,17.72,NW,306,3.0,4.0,33,0.00,,,0.00,,2013-03-20 18:33:00,
2013-03-20 13:42:00,41.0,14.0,17.72,NW,306,3.0,4.0,33,0.00,,,0.00,,2013-03-20 18:42:00,
2013-03-20 13:52:00,43.0,15.0,17.72,NW,305,2.0,3.0,32,0.00,,,0.00,,2013-03-20 18:52:00,
2013-03-20 14:02:00,43.0,15.0,17.72,NW,317,2.0,3.0,32,0.00,,,0.00,,2013-03-20 19:02:00,
2013-03-20 14:12:00,43.0,15.0,17.72,NW,317,2.0,3.0,32,0.00,,,0.00,,2013-03-20 19:12:00,
2013-03-20 14:22:00,45.0,16.0,17.72,North,0,2.0,3.0,31,0.00,,,0.00,,2013-03-20 19:22:00,
2013-03-20 14:32:00,44.0,15.0,17.72,WSW,249,2.0,2.0,31,0.00,,,0.00,,2013-03-20 19:32:00,
2013-03-20 14:42:00,44.0,15.0,17.72,WSW,249,2.0,2.0,31,0.00,,,0.00,,2013-03-20 19:42:00,
2013-03-20 14:53:00,46.0,17.0,17.72,South,172,2.0,5.0,31,0.00,,,0.00,,2013-03-20 19:53:00,
2013-03-20 15:02:00,47.0,17.0,17.72,North,353,3.0,5.0,30,0.00,,,0.00,,2013-03-20 20:02:00,
2013-03-20 15:12:00,47.0,17.0,17.72,North,353,3.0,5.0,30,0.00,,,0.00,,2013-03-20 20:12:00,
2013-03-20 15:22:00,47.0,16.0,17.72,ENE,64,3.0,3.0,29,0.00,,,0.00,,2013-03-20 20:22:00,
2013-03-20 15:32:00,49.0,18.0,17.72,SE,139,4.0,5.0,29,0.00,,,0.00,,2013-03-20 20:32:00,
2013-03-20 15:42:00,49.0,18.0,17.72,SE,139,4.0,5.0,29,0.00,,,0.00,,2013-03-20 20:42:00,
2013-03-20 15:53:00,48.0,17.0,17.72,SSW,213,3.0,4.0,29,0.00,,,0.00,,2013-03-20 20:53:00,
2013-03-20 16:02:00,48.0,16.0,17.72,North,353,5.0,5.0,28,0.00,,,0.00,,2013-03-20 21:02:00,
2013-03-20 16:12:00,48.0,16.0,17.72,North,353,5.0,5.0,28,0.00,,,0.00,,2013-03-20 21:12:00,
2013-03-20 16:22:00,49.0,17.0,17.72,NNE,27,4.0,4.0,28,0.00,,,0.00,,2013-03-20 21:22:00,
2013-03-20 16:33:00,49.0,17.0,17.72,NNE,17,0.0,0.0,28,0.00,,,0.00,,2013-03-20 21:33:00,
2013-03-20 16:42:00,49.0,17.0,17.72,NNE,17,0.0,0.0,28,0.00,,,0.00,,2013-03-20 21:42:00,
2013-03-20 16:53:00,50.0,18.0,17.72,South,173,2.0,3.0,28,0.00,,,0.00,,2013-03-20 21:53:00,
2013-03-20 17:03:00,50.0,18.0,17.72,SSE,147,3.0,5.0,28,0.00,,,0.00,,2013-03-20 22:03:00,
2013-03-20 17:12:00,50.0,18.0,17.72,SSE,147,3.0,5.0,28,0.00,,,0.00,,2013-03-20 22:12:00,
2013-03-20 17:23:00,50.0,18.0,17.72,SSE,160,2.0,3.0,28,0.00,,,0.00,,2013-03-20 22:23:00,
2013-03-20 17:32:00,50.0,18.0,17.72,SSW,206,2.0,3.0,28,0.00,,,0.00,,2013-03-20 22:32:00,
2013-03-20 17:42:00,50.0,18.0,17.72,SSW,206,2.0,3.0,28,0.00,,,0.00,,2013-03-20 22:42:00,
2013-03-20 17:52:00,49.0,17.0,17.72,NE,50,0.0,0.0,28,0.00,,,0.00,,2013-03-20 22:52:00,
2013-03-20 18:02:00,48.0,17.0,17.72,East,89,3.0,3.0,29,0.00,,,0.00,,2013-03-20 23:02:00,
2013-03-20 18:12:00,48.0,17.0,17.72,East,89,3.0,3.0,29,0.00,,,0.00,,2013-03-20 23:12:00,
2013-03-20 18:22:00,48.0,17.0,17.72,SSE,147,3.0,3.0,29,0.00,,,0.00,,2013-03-20 23:22:00,
2013-03-20 18:32:00,47.0,16.0,17.72,SSE,154,3.0,3.0,29,0.00,,,0.00,,2013-03-20 23:32:00,
2013-03-20 18:42:00,47.0,16.0,17.72,SSE,154,3.0,3.0,29,0.00,,,0.00,,2013-03-20 23:42:00,
2013-03-20 18:53:00,46.0,16.0,17.72,SSE,157,0.0,0.0,29,0.00,,,0.00,,2013-03-20 23:53:00,
2013-03-20 19:02:00,46.0,16.0,17.72,SSE,157,0.0,0.0,29,0.00,,,0.00,,2013-03-21 00:02:00,
2013-03-20 19:12:00,46.0,16.0,17.72,SSE,157,0.0,0.0,29,0.00,,,0.00,,2013-03-21 00:12:00,
2013-03-20 19:23:00,45.0,15.0,17.72,SSE,157,2.0,2.0,29,0.00,,,0.00,,2013-03-21 00:23:00,
2013-03-20 19:32:00,44.0,15.0,17.72,SSE,157,0.0,0.0,30,0.00,,,0.00,,2013-03-21 00:32:00,
2013-03-20 19:42:00,44.0,15.0,17.72,SSE,157,0.0,0.0,30,0.00,,,0.00,,2013-03-21 00:42:00,
2013-03-20 19:52:00,43.0,14.0,17.72,ENE,71,3.0,3.0,31,0.00,,,0.00,,2013-03-21 00:52:00,
2013-03-20 20:02:00,42.0,14.0,17.72,ENE,73,2.0,3.0,31,0.00,,,0.00,,2013-03-21 01:02:00,
2013-03-20 20:12:00,42.0,14.0,17.72,ENE,73,2.0,3.0,31,0.00,,,0.00,,2013-03-21 01:12:00,
2013-03-20 20:22:00,41.0,13.0,17.72,ENE,76,3.0,3.0,32,0.00,,,0.00,,2013-03-21 01:22:00,
2013-03-20 20:32:00,40.0,13.0,17.72,NE,56,3.0,3.0,33,0.00,,,0.00,,2013-03-21 01:32:00,
2013-03-20 20:42:00,40.0,13.0,17.72,NE,56,3.0,3.0,33,0.00,,,0.00,,2013-03-21 01:42:00,
2013-03-20 20:53:00,40.0,14.0,17.72,ENE,75,3.0,4.0,34,0.00,,,0.00,,2013-03-21 01:53:00,
2013-03-20 21:02:00,39.0,14.0,17.72,ENE,67,0.0,3.0,35,0.00,,,0.00,,2013-03-21 02:02:00,
2013-03-20 21:12:00,39.0,14.0,17.72,ENE,67,0.0,3.0,35,0.00,,,0.00,,2013-03-21 02:12:00,
2013-03-20 21:22:00,38.0,13.0,17.72,NNE,29,3.0,5.0,36,0.00,,,0.00,,2013-03-21 02:22:00,
2013-03-20 21:32:00,38.0,14.0,17.72,ENE,71,3.0,5.0,37,0.00,,,0.00,,2013-03-21 02:32:00,
2013-03-20 21:52:00,38.0,14.0,17.72,ENE,71,3.0,5.0,37,0.00,,,0.00,,2013-03-21 02:52:00,
2013-03-20 22:02:00,38.0,15.0,17.72,ENE,78,2.0,5.0,38,0.00,,,0.00,,2013-03-21 03:02:00,
2013-03-20 22:12:00,38.0,15.0,17.72,ENE,78,2.0,5.0,38,0.00,,,0.00,,2013-03-21 03:12:00,
2013-03-20 22:22:00,37.0,14.0,17.72,NE,49,3.0,3.0,39,0.00,,,0.00,,2013-03-21 03:22:00,
2013-03-20 22:32:00,37.0,14.0,17.72,ENE,75,3.0,3.0,39,0.00,,,0.00,,2013-03-21 03:32:00,
2013-03-20 22:43:00,37.0,14.0,17.72,ENE,75,3.0,3.0,39,0.00,,,0.00,,2013-03-21 03:43:00,
2013-03-20 22:53:00,37.0,14.0,17.72,ENE,59,3.0,3.0,39,0.00,,,0.00,,2013-03-21 03:53:00,
2013-03-20 23:03:00,37.0,14.0,17.72,ENE,61,5.0,5.0,39,0.00,,,0.00,,2013-03-21 04:03:00,
2013-03-20 23:13:00,37.0,14.0,17.72,ENE,61,5.0,5.0,39,0.00,,,0.00,,2013-03-21 04:13:00,
2013-03-20 23:23:00,37.0,14.0,17.72,ENE,68,5.0,7.0,38,0.00,,,0.00,,2013-03-21 04:23:00,
2013-03-20 23:32:00,37.0,14.0,17.72,East,90,3.0,5.0,39,0.00,,,0.00,,2013-03-21 04:32:00,
2013-03-20 23:43:00,37.0,14.0,17.72,East,90,3.0,5.0,39,0.00,,,0.00,,2013-03-21 04:43:00,
2013-03-20 23:53:00,37.0,14.0,17.72,NE,55,3.0,7.0,39,0.00,,,0.00,,2013-03-21 04:53:00,